Content
SEND FEEDBACK

Daily
Averages
Monthly
Summary
Turkmenistan

ASHGABAT, TURKMENISTAN


Home > Asia > Turkmenistan
Elevation: 236 meters     Latitude: 37 58N     Longitude: 058 20E

WEATHER
 
SELECT A DAY
Number of Records: 181,286;   Date Range: 3/15/97 - 10/24/14
 
SHARE

PRINT THIS DATA

[ ← Previous Day ]
WEATHER ALMANAC - 1 AUGUST, 2013
[ Next Day → ]
[ °F ]   °C
Weather ElementAverageHighLow
Temperature32.4 °C38 °C (5:00 pm)27 °C (6:00 am)
Dewpoint10.2 °C16.1 °C (2:00 am)8 °C (1:00 pm)
Humidity24.2 %39 % (2:00 am)13 % (2:00 pm)
Barometer1006.1 hPa1009.1 hPa (9:00 am)1003.7 hPa (5:00 pm)
Wind Speed14.8 km/h32.3 km/h (12:00 pm)
Weather ElementAverage
Visibility9.8 km
Wind DirectionE (92.6 °)

Weather ElementTotal
Precipitation---
Cooling Degree Days14.2 (Base 18.3)
Growing Degree Days22.5 (Base 10)
Averaged from 31 records on 1 August, 2013
WEATHER CONDITIONS BREAKOUT
WIND DIRECTION BREAKOUT
WEATHER BY HOUR - 1 AUGUST, 2013
[ °F ]   °C
Local TimeTemperatureDewpointHumidityBarometerVisibilityWind DirectionWind SpeedGust SpeedPrecipitationEventsConditions
1:00 AM30 °C13 °C35 %1005.1 hPa10 kmCalmPartly Cloudy
2:00 AM27.8 °C16.1 °C39 %1004.7 hPa9.7 kmESE (110°)10.8 km/hScattered Clouds
2:00 AM28 °C13 °C39 %1005.1 hPa10 kmESE (110°)10.8 km/hMostly Cloudy
3:00 AM29 °C10 °C30 %1006.1 hPa10 kmENE (70°)10.8 km/hMostly Cloudy
4:00 AM29 °C9 °C29 %1006.1 hPa10 kmEast (80°)7.2 km/hMostly Cloudy
5:00 AM28.3 °C11.1 °C24 %1006.1 hPa9.7 kmNE (50°)10.8 km/hOvercast
5:00 AM29 °C9 °C29 %1007.1 hPa10 kmNE (50°)10.8 km/hOvercast
6:00 AM27 °C10 °C34 %1007.1 hPa10 kmSSE (160°)10.8 km/hOvercast
7:00 AM28 °C10 °C32 %1008.1 hPa10 kmVariable3.5 km/hMostly Cloudy
8:00 AM28.3 °C12.8 °C28 %1007.5 hPa9.7 kmEast (80°)10.8 km/hPartly Cloudy
8:00 AM28 °C11 °C35 %1008.1 hPa10 kmEast (90°)10.8 km/hMostly Cloudy
9:00 AM31 °C10 °C27 %1009.1 hPa10 kmEast (100°)14.3 km/hMostly Cloudy
10:00 AM33 °C9 °C23 %1008.1 hPa10 kmEast (100°)21.6 km/hMostly Cloudy
11:00 AM33.3 °C10 °C15 %1006.8 hPa9.7 kmEast (100°)28.8 km/hScattered Clouds
11:00 AM33 °C9 °C23 %1007.1 hPa10 kmEast (100°)28.8 km/hMostly Cloudy
12:00 PM34 °C9 °C21 %1006.1 hPa10 kmEast (100°)32.3 km/hMostly Cloudy
1:00 PM35 °C8 °C19 %1006.1 hPa10 kmEast (90°)28.8 km/hMostly Cloudy
2:00 PM35.6 °C10.6 °C13 %1005.1 hPa9.7 kmENE (70°)21.6 km/hMostly Cloudy
2:00 PM37 °C8 °C17 %1006.1 hPa10 kmEast (80°)21.6 km/hMostly Cloudy
3:00 PM37 °C8 °C17 %1006.1 hPa10 kmENE (70°)21.6 km/hMostly Cloudy
4:00 PM37 °C8 °C17 %1005.1 hPa10 kmENE (70°)18 km/hScattered Clouds
5:00 PM36.7 °C11.7 °C13 %1003.7 hPa9.7 kmSE (130°)18 km/hScattered Clouds
5:00 PM38 °C8 °C16 %1005.1 hPa10 kmESE (120°)18 km/hScattered Clouds
6:00 PM37 °C8 °C17 %1005.1 hPa10 kmSE (130°)18 km/hScattered Clouds
7:00 PM37 °C8 °C17 %1004.1 hPa10 kmSE (130°)14.3 km/hScattered Clouds
8:00 PM34.4 °C12.8 °C18 %1003.7 hPa9.7 kmSE (140°)10.8 km/hScattered Clouds
8:00 PM35 °C9 °C20 %1005.1 hPa10 kmSE (140°)10.8 km/hScattered Clouds
9:00 PM34 °C10 °C23 %1005.1 hPa10 kmENE (60°)10.8 km/hScattered Clouds
10:00 PM33 °C10 °C24 %1006.1 hPa10 kmNE (50°)7.2 km/hPartly Cloudy
11:00 PM30 °C13.9 °C27 %1005.1 hPa9.7 kmSE (140°)7.2 km/h
11:00 PM31 °C11 °C29 %1006.1 hPa10 kmSSE (150°)7.2 km/hClear
Hourly data recorded from UTAA, located 0 kilometers away from Ashgabat, Turkmenistan







STORIES FROM OUR PARTNERS